Radiation Dose at Monitoring Post of Fukushima Daini Nuclear Power Station
Date,Time,MP-1(microSv/h),MP-2(microSv/h),MP-3(microSv/h),MP-4(microSv/h),MP-5(microSv/h),MP-6(microSv/h),MP-7(microSv/h),Wind Direction,Wind Velocity(m/s),Rain
2014/12/04,00:00,0.601,0.388,0.649,0.583,0.575,0.268,0.234,west-southwest,8.1,No
2014/12/04,00:10,0.601,0.387,0.649,0.584,0.574,0.268,0.235,west-southwest,8.7,No
2014/12/04,00:20,0.602,0.388,0.648,0.584,0.576,0.269,0.236,west-southwest,7.1,No
2014/12/04,00:30,0.601,0.389,0.647,0.583,0.574,0.268,0.235,west-southwest,5.8,No
2014/12/04,00:40,0.600,0.390,0.648,0.583,0.575,0.268,0.235,west-southwest,6.2,No
2014/12/04,00:50,0.603,0.389,0.649,0.582,0.576,0.267,0.235,west-southwest,7.4,No
2014/12/04,01:00,0.601,0.390,0.648,0.584,0.575,0.269,0.233,west-southwest,6.2,No
2014/12/04,01:10,0.601,0.389,0.647,0.585,0.575,0.269,0.235,southeast,0.6,No
2014/12/04,01:20,0.601,0.389,0.649,0.584,0.574,0.269,0.235,southwest,1.3,No
2014/12/04,01:30,0.601,0.389,0.647,0.583,0.576,0.270,0.235,west-southwest,1.9,No
2014/12/04,01:40,0.602,0.388,0.648,0.584,0.576,0.270,0.235,southwest,1.9,No
2014/12/04,01:50,0.602,0.389,0.649,0.584,0.576,0.271,0.234,south-southwest,1.4,No
2014/12/04,02:00,0.602,0.390,0.648,0.584,0.574,0.270,0.235,south-southwest,2.7,No
2014/12/04,02:10,0.602,0.389,0.649,0.585,0.575,0.269,0.235,southwest,2.2,No
2014/12/04,02:20,0.602,0.389,0.648,0.586,0.575,0.268,0.236,southwest,1.3,No
2014/12/04,02:30,0.601,0.388,0.649,0.583,0.575,0.270,0.235,south,1.4,No
2014/12/04,02:40,0.600,0.390,0.648,0.585,0.574,0.269,0.234,southwest,1.0,No
2014/12/04,02:50,0.600,0.387,0.648,0.584,0.575,0.269,0.236,south-southwest,1.9,No
2014/12/04,03:00,0.600,0.388,0.648,0.585,0.576,0.269,0.236,south-southwest,3.6,No
2014/12/04,03:10,0.601,0.388,0.648,0.583,0.575,0.270,0.235,southwest,3.2,No
2014/12/04,03:20,0.600,0.388,0.649,0.585,0.574,0.270,0.235,southwest,3.3,No
2014/12/04,03:30,0.601,0.389,0.649,0.583,0.576,0.270,0.234,west,1.5,No
2014/12/04,03:40,0.601,0.388,0.649,0.584,0.576,0.270,0.237,west,1.3,No
2014/12/04,03:50,0.603,0.389,0.649,0.583,0.577,0.271,0.235,-,CALM,No
2014/12/04,04:00,0.602,0.387,0.648,0.585,0.576,0.269,0.235,southwest,1.6,No
2014/12/04,04:10,0.602,0.389,0.649,0.582,0.575,0.270,0.235,west-southwest,1.4,No
2014/12/04,04:20,0.601,0.388,0.649,0.584,0.575,0.268,0.236,southwest,1.7,No
2014/12/04,04:30,0.599,0.388,0.649,0.584,0.576,0.268,0.235,west-southwest,3.6,No
2014/12/04,04:40,0.601,0.389,0.648,0.582,0.576,0.270,0.235,west-southwest,3.0,No
2014/12/04,04:50,0.603,0.389,0.649,0.584,0.576,0.270,0.235,west,3.3,No
2014/12/04,05:00,0.603,0.390,0.649,0.585,0.574,0.269,0.235,west-northwest,2.3,No
2014/12/04,05:10,0.601,0.388,0.648,0.585,0.575,0.269,0.235,west-northwest,2.0,No
2014/12/04,05:20,0.601,0.389,0.648,0.585,0.577,0.270,0.235,west-southwest,4.2,No
2014/12/04,05:30,0.600,0.389,0.648,0.584,0.576,0.269,0.237,west-southwest,5.9,No
2014/12/04,05:40,0.601,0.390,0.648,0.583,0.577,0.269,0.235,west-southwest,4.5,No
2014/12/04,05:50,0.601,0.389,0.648,0.584,0.575,0.270,0.235,west-southwest,4.7,No
2014/12/04,06:00,0.602,0.389,0.648,0.583,0.576,0.272,0.235,west-southwest,7.5,No
2014/12/04,06:10,0.602,0.388,0.648,0.584,0.576,0.271,0.235,west-southwest,6.0,No
2014/12/04,06:20,0.600,0.389,0.649,0.583,0.575,0.269,0.235,west,1.9,No
2014/12/04,06:30,0.601,0.390,0.649,0.584,0.575,0.270,0.236,west-southwest,3.6,No
2014/12/04,06:40,0.599,0.388,0.649,0.584,0.576,0.270,0.235,west-southwest,7.0,No
2014/12/04,06:50,0.602,0.389,0.649,0.584,0.575,0.268,0.236,west-southwest,8.6,No
2014/12/04,07:00,0.602,0.388,0.650,0.584,0.576,0.269,0.236,west-southwest,8.0,No
2014/12/04,07:10,0.602,0.389,0.649,0.584,0.577,0.268,0.236,west,5.7,No
2014/12/04,07:20,0.600,0.389,0.649,0.582,0.575,0.270,0.235,west,3.9,No
2014/12/04,07:30,0.602,0.388,0.648,0.584,0.577,0.269,0.236,west,3.8,No
2014/12/04,07:40,0.602,0.389,0.650,0.584,0.574,0.268,0.237,west,3.4,No
2014/12/04,07:50,0.601,0.387,0.649,0.583,0.578,0.270,0.236,west,3.2,No
2014/12/04,08:00,0.601,0.389,0.648,0.584,0.576,0.270,0.235,west-northwest,4.5,No
2014/12/04,08:10,0.601,0.389,0.649,0.579,0.575,0.268,0.234,west,4.8,No
2014/12/04,08:20,0.601,0.387,0.648,0.576,0.575,0.270,0.233,west,1.9,No
2014/12/04,08:30,0.600,0.390,0.649,0.576,0.576,0.270,0.234,west-southwest,1.0,No
2014/12/04,08:40,0.601,0.390,0.650,0.575,0.575,0.269,0.235,-,CALM,No
2014/12/04,08:50,0.601,0.390,0.650,0.576,0.576,0.269,0.235,-,CALM,No
2014/12/04,09:00,0.602,0.389,0.649,0.576,0.577,0.269,0.234,north,1.3,No
2014/12/04,09:10,0.602,0.391,0.649,0.577,0.578,0.269,0.235,north,1.9,No
2014/12/04,09:20,0.603,0.391,0.649,0.576,0.577,0.270,0.235,north-northeast,2.0,No
2014/12/04,09:30,0.604,0.391,0.651,0.575,0.576,0.271,0.235,north,1.8,No
2014/12/04,09:40,0.604,0.390,0.650,0.575,0.578,0.269,0.235,north-northeast,1.5,No
2014/12/04,09:50,0.601,0.389,0.649,0.577,0.576,0.270,0.235,north,3.3,No
2014/12/04,10:00,0.602,0.390,0.649,0.576,0.577,0.269,0.235,north-northeast,2.5,No
2014/12/04,10:10,0.602,0.390,0.651,0.577,0.576,0.270,0.234,north-northeast,3.4,No
2014/12/04,10:20,0.603,0.391,0.650,0.573,0.574,0.269,0.236,north,2.4,No
2014/12/04,10:30,0.604,0.390,0.652,0.575,0.577,0.269,0.236,north,2.0,No
2014/12/04,10:40,0.604,0.391,0.651,0.576,0.577,0.269,0.236,north,1.9,No
2014/12/04,10:50,0.602,0.387,0.652,0.575,0.575,0.270,0.235,north-northeast,2.3,No
2014/12/04,11:00,0.603,0.391,0.649,0.575,0.575,0.270,0.235,north,2.2,No
2014/12/04,11:10,0.604,0.390,0.646,0.577,0.574,0.269,0.236,northwest,0.5,No
2014/12/04,11:20,0.603,0.390,0.651,0.576,0.576,0.269,0.234,north-northwest,0.7,No
2014/12/04,11:30,0.603,0.391,0.651,0.576,0.576,0.269,0.236,north-northwest,1.1,No
2014/12/04,11:40,0.602,0.391,0.650,0.578,0.577,0.271,0.235,west-northwest,0.8,No
2014/12/04,11:50,0.603,0.391,0.653,0.576,0.576,0.269,0.235,west,0.9,No
2014/12/04,12:00,0.603,0.391,0.652,0.576,0.575,0.269,0.235,west,0.5,No
2014/12/04,12:10,0.602,0.389,0.652,0.577,0.577,0.270,0.235,west-southwest,0.7,No
2014/12/04,12:20,0.602,0.391,0.649,0.576,0.574,0.269,0.235,-,CALM,No
2014/12/04,12:30,0.604,0.390,0.649,0.576,0.576,0.269,0.236,-,CALM,No
2014/12/04,12:40,0.603,0.390,0.650,0.575,0.575,0.269,0.235,-,CALM,No
2014/12/04,12:50,0.602,0.391,0.652,0.577,0.577,0.269,0.235,northwest,0.9,No
2014/12/04,13:00,0.602,0.391,0.649,0.575,0.577,0.268,0.236,northwest,0.8,No
2014/12/04,13:10,0.603,0.391,0.649,0.577,0.577,0.269,0.234,north,1.2,No
2014/12/04,13:20,0.602,0.391,0.651,0.576,0.577,0.269,0.235,north-northwest,0.6,No
2014/12/04,13:30,0.603,0.389,0.651,0.576,0.575,0.270,0.236,north-northwest,0.5,No
2014/12/04,13:40,0.602,0.389,0.652,0.575,0.577,0.271,0.236,north-northwest,0.6,No
2014/12/04,13:50,0.601,0.389,0.651,0.577,0.576,0.269,0.235,-,CALM,No
2014/12/04,14:00,0.601,0.391,0.650,0.577,0.576,0.270,0.235,-,CALM,No
2014/12/04,14:10,0.603,0.390,0.651,0.576,0.575,0.270,0.235,-,CALM,No
2014/12/04,14:20,0.603,0.391,0.649,0.576,0.576,0.269,0.236,north-northeast,1.1,No
2014/12/04,14:30,0.603,0.390,0.649,0.576,0.576,0.269,0.235,north,0.8,No
2014/12/04,14:40,0.603,0.390,0.651,0.576,0.575,0.269,0.236,north,1.3,No
2014/12/04,14:50,0.603,0.390,0.650,0.576,0.576,0.270,0.237,north-northwest,1.1,No
2014/12/04,15:00,0.602,0.391,0.650,0.574,0.578,0.268,0.235,north-northwest,1.4,No
2014/12/04,15:10,0.603,0.389,0.652,0.573,0.576,0.271,0.234,north-northwest,1.8,Yes
2014/12/04,15:20,0.603,0.390,0.649,0.576,0.577,0.269,0.235,north-northwest,2.1,Yes
2014/12/04,15:30,0.603,0.390,0.652,0.577,0.578,0.269,0.237,north-northwest,2.4,Yes
2014/12/04,15:40,0.601,0.390,0.650,0.577,0.577,0.272,0.236,northwest,2.1,Yes
2014/12/04,15:50,0.604,0.392,0.651,0.581,0.576,0.269,0.238,northwest,3.5,Yes
2014/12/04,16:00,0.602,0.391,0.650,0.587,0.577,0.270,0.236,northwest,2.2,Yes
2014/12/04,16:10,0.605,0.390,0.651,0.587,0.577,0.272,0.237,northwest,2.3,Yes
2014/12/04,16:20,0.605,0.392,0.651,0.587,0.578,0.270,0.239,northwest,2.2,Yes
2014/12/04,16:30,0.605,0.393,0.651,0.587,0.579,0.273,0.238,west-northwest,2.5,Yes
2014/12/04,16:40,0.605,0.394,0.653,0.589,0.580,0.273,0.240,west-northwest,3.6,Yes
2014/12/04,16:50,0.605,0.394,0.651,0.589,0.580,0.273,0.241,west-northwest,4.5,Yes
2014/12/04,17:00,0.604,0.393,0.653,0.587,0.578,0.275,0.241,west,5.8,Yes
2014/12/04,17:10,0.606,0.394,0.652,0.588,0.580,0.274,0.241,west-northwest,4.8,Yes
2014/12/04,17:20,0.606,0.395,0.652,0.590,0.579,0.275,0.240,west,3.8,Yes
2014/12/04,17:30,0.605,0.395,0.654,0.588,0.580,0.275,0.241,west,3.9,Yes
2014/12/04,17:40,0.605,0.396,0.652,0.588,0.579,0.275,0.242,west,4.2,Yes
2014/12/04,17:50,0.606,0.395,0.652,0.587,0.578,0.274,0.242,west-southwest,3.2,Yes
2014/12/04,18:00,0.606,0.395,0.652,0.589,0.578,0.275,0.241,southwest,2.6,Yes
2014/12/04,18:10,0.604,0.394,0.653,0.587,0.576,0.276,0.242,southwest,2.1,Yes
2014/12/04,18:20,0.604,0.393,0.650,0.586,0.578,0.274,0.240,southwest,1.8,Yes
2014/12/04,18:30,0.604,0.394,0.652,0.586,0.577,0.275,0.241,southwest,2.5,Yes
2014/12/04,18:40,0.604,0.392,0.649,0.585,0.575,0.273,0.239,south-southwest,1.8,Yes
2014/12/04,18:50,0.604,0.390,0.649,0.583,0.577,0.273,0.239,south,0.7,Yes
2014/12/04,19:00,0.601,0.391,0.647,0.582,0.574,0.271,0.238,southwest,0.9,Yes
2014/12/04,19:10,0.599,0.390,0.647,0.583,0.574,0.272,0.235,west,0.8,No
2014/12/04,19:20,0.601,0.388,0.647,0.583,0.574,0.269,0.237,west,0.9,No
2014/12/04,19:30,0.598,0.389,0.648,0.581,0.574,0.269,0.235,northwest,1.1,Yes
2014/12/04,19:40,0.597,0.389,0.646,0.581,0.573,0.268,0.235,north-northeast,2.8,Yes
2014/12/04,19:50,0.598,0.388,0.645,0.581,0.573,0.269,0.236,north,3.4,No
2014/12/04,20:00,0.599,0.388,0.646,0.580,0.573,0.268,0.235,north,2.7,Yes
2014/12/04,20:10,0.599,0.388,0.646,0.581,0.572,0.269,0.234,north-northwest,2.4,No
2014/12/04,20:20,0.598,0.388,0.645,0.579,0.573,0.267,0.234,north-northwest,3.0,Yes
2014/12/04,20:30,0.597,0.386,0.645,0.580,0.574,0.267,0.235,north,3.5,Yes
2014/12/04,20:40,0.595,0.388,0.645,0.581,0.572,0.269,0.234,north,3.8,No
2014/12/04,20:50,0.597,0.388,0.645,0.579,0.573,0.268,0.234,north-northwest,3.7,No
2014/12/04,21:00,0.598,0.388,0.645,0.579,0.573,0.268,0.233,north-northwest,5.0,No
2014/12/04,21:10,0.597,0.387,0.644,0.580,0.574,0.269,0.234,north,4.0,No
2014/12/04,21:20,0.599,0.387,0.645,0.580,0.572,0.267,0.234,north-northwest,4.4,No
2014/12/04,21:30,0.598,0.387,0.646,0.578,0.573,0.267,0.234,north-northwest,4.4,No
2014/12/04,21:40,0.597,0.388,0.645,0.579,0.571,0.267,0.233,north-northwest,5.1,No
2014/12/04,21:50,0.596,0.386,0.644,0.580,0.574,0.266,0.233,north-northwest,4.9,No
2014/12/04,22:00,0.594,0.387,0.644,0.579,0.573,0.267,0.235,north-northwest,4.1,No
2014/12/04,22:10,0.597,0.387,0.644,0.578,0.573,0.266,0.232,northwest,3.4,No
2014/12/04,22:20,0.598,0.386,0.643,0.578,0.572,0.267,0.232,northwest,3.8,No
2014/12/04,22:30,0.596,0.387,0.644,0.581,0.572,0.266,0.233,northwest,4.4,No
2014/12/04,22:40,0.597,0.386,0.644,0.580,0.573,0.269,0.233,northwest,4.1,No
2014/12/04,22:50,0.597,0.386,0.643,0.579,0.573,0.267,0.233,northwest,3.4,No
2014/12/04,23:00,0.597,0.387,0.643,0.579,0.571,0.268,0.232,northwest,3.1,No
2014/12/04,23:10,0.597,0.386,0.643,0.578,0.571,0.267,0.234,north-northwest,3.4,No
2014/12/04,23:20,0.598,0.386,0.643,0.578,0.573,0.267,0.232,northwest,3.9,No
2014/12/04,23:30,0.598,0.387,0.645,0.580,0.570,0.268,0.233,west-northwest,4.0,No
2014/12/04,23:40,0.598,0.387,0.644,0.578,0.573,0.267,0.233,north-northwest,5.1,No
2014/12/04,23:50,0.597,0.386,0.644,0.580,0.572,0.267,0.233,north-northwest,6.4,No
